User: anonymous   Login
Location: Camp at the Woods
(43.2055°N, 93.0905°W)
Time: 12:08:44
(UTC+00:00)
Language:

SL-8 R/B - Orbit

View from above orbital plane
View from above orbital plane
View from above satellite
View from above satellite

Ground track
Ground track

The orbit data is extracted from the following two-line orbital elements,

1 33066U 08031G   24104.02024504  .00000615  00000-0  13097-3 0  9993
2 33066  48.4439 328.5918 0007620 216.7150 143.3240 14.71105954849314
Epoch (UTC): 13 April 2024 00:29:09
Eccentricity: 0.0007620
inclination: 48.4439°
perigee height: 652 km
apogee height: 663 km
right ascension of ascending node: 328.5918°
argument of perigee: 216.7150°
revolutions per day: 14.71105954
mean anomaly at epoch: 143.3240°
orbit number at epoch: 84931

The dashed part of the orbit path shows where the satellite is in the earth's shadow,  

DLR